User: anonymous   Login
Location: Unspecified
(0.0000°N, 0.0000°E)
Time: 20:02:16
(UTC+00:00)
Language:

P76-5 - Orbit

View from above orbital plane
View from above orbital plane
View from above satellite
View from above satellite

Ground track
Ground track

The orbit data is extracted from the following two-line orbital elements,

1 08860U 76047A   18172.37063977  .00000007  00000-0  61823-4 0  9998
2 08860  99.6999 287.3408 0041649 224.4199 168.3746 13.67581589 97747
Epoch (UTC): 21 June 2018 08:53:43
Eccentricity: 0.0041649
inclination: 99.6999°
perigee height: 977 km
apogee height: 1039 km
right ascension of ascending node: 287.3408°
argument of perigee: 224.4199°
revolutions per day: 13.67581589
mean anomaly at epoch: 168.3746°
orbit number at epoch: 9774

The dashed part of the orbit path shows where the satellite is in the earth's shadow,  

DLR